KLM039 EHRD-EDDS

Flight info

Callsign KLM039
Flight time 1h 0m
Altitude FL270
Route LUNIX Z739 DEGOM L603 BOMBI N850 KRH T128 BADSO
Aircraft A21N/M-SDE2E3FGHIRWXY/LB1

Departure

Time 2026-05-04 18:11
Airport Rotterdam The Hague Airport (EHRD)

Arrival

Time 2026-05-04 19:11
Airport Stuttgart Airport (EDDS)
Time Latitude Longitude Altitude Speed Heading
2026-05-04 18:03 51.95185 4.43408 -10 ft 0 kts 327°
2026-05-04 18:04 51.95206 4.43380 -10 ft 5 kts 300°
2026-05-04 18:05 51.95201 4.43307 -10 ft 9 kts 245°
2026-05-04 18:05 51.95169 4.43213 -10 ft 10 kts 240°
2026-05-04 18:05 51.95133 4.43108 -10 ft 11 kts 242°
2026-05-04 18:05 51.95113 4.43036 -10 ft 0 kts 254°
2026-05-04 18:06 51.95111 4.43012 -10 ft 4 kts 265°
2026-05-04 18:06 51.95119 4.42986 -10 ft 3 kts 308°
2026-05-04 18:06 51.95134 4.42957 -10 ft 0 kts 308°
2026-05-04 18:09 51.95135 4.42954 -12 ft 1 kts 308°
2026-05-04 18:09 51.95209 4.42877 -12 ft 10 kts 10°
2026-05-04 18:10 51.95256 4.42945 -12 ft 0 kts 55°
2026-05-04 18:10 51.95305 4.43065 -12 ft 48 kts 57°
2026-05-04 18:10 51.95639 4.43901 -14 ft 127 kts 57°
2026-05-04 18:10 51.96203 4.45334 210 ft 166 kts 54°
2026-05-04 18:11 51.96795 4.46917 1019 ft 168 kts 58°
2026-05-04 18:11 51.97333 4.48504 1938 ft 166 kts 59°
2026-05-04 18:11 51.97901 4.50186 2585 ft 181 kts 59°
2026-05-04 18:11 51.98552 4.52108 2916 ft 215 kts 59°
2026-05-04 18:12 51.99336 4.54409 2992 ft 247 kts 59°
2026-05-04 18:12 52.00291 4.56731 2987 ft 250 kts 46°
2026-05-04 18:12 52.01670 4.58401 2991 ft 250 kts 26°
2026-05-04 18:12 52.03240 4.59592 2994 ft 250 kts 24°
2026-05-04 18:13 52.04759 4.60918 2996 ft 249 kts 33°
2026-05-04 18:13 52.06104 4.62706 2993 ft 249 kts 43°
2026-05-04 18:13 52.08540 4.66776 3512 ft 260 kts 46°
2026-05-04 18:14 52.09769 4.68867 4636 ft 261 kts 46°
2026-05-04 18:14 52.11010 4.70972 5713 ft 264 kts 46°
2026-05-04 18:14 52.12275 4.73112 6657 ft 269 kts 46°
2026-05-04 18:15 52.14862 4.77605 8458 ft 280 kts 52°
2026-05-04 18:15 52.16515 4.83366 10156 ft 292 kts 72°
2026-05-04 18:15 52.17114 4.86561 10786 ft 305 kts 73°
2026-05-04 18:16 52.17736 4.89943 11254 ft 323 kts 73°
2026-05-04 18:16 52.18398 4.93520 11698 ft 341 kts 73°
2026-05-04 18:16 52.19104 4.97299 12084 ft 360 kts 73°
2026-05-04 18:17 52.20629 5.05440 12944 ft 390 kts 73°
2026-05-04 18:17 52.21418 5.09657 13702 ft 394 kts 73°
2026-05-04 18:17 52.23020 5.18220 15187 ft 402 kts 73°
2026-05-04 18:18 52.23622 5.22643 15844 ft 406 kts 86°
2026-05-04 18:18 52.23306 5.27176 16518 ft 409 kts 107°
2026-05-04 18:18 52.22062 5.31330 17204 ft 410 kts 124°
2026-05-04 18:18 52.20406 5.35082 17883 ft 413 kts 127°
2026-05-04 18:19 52.17028 5.42686 19092 ft 421 kts 126°
2026-05-04 18:19 52.15329 5.46550 19675 ft 425 kts 126°
2026-05-04 18:19 52.13616 5.50466 20229 ft 429 kts 126°
2026-05-04 18:20 52.11889 5.54416 20777 ft 433 kts 126°
2026-05-04 18:20 52.10135 5.58425 21323 ft 437 kts 126°
2026-05-04 18:20 52.08375 5.62433 21854 ft 440 kts 126°
2026-05-04 18:20 52.06576 5.66444 22386 ft 443 kts 129°
2026-05-04 18:21 52.04644 5.70316 22905 ft 445 kts 132°
2026-05-04 18:21 52.02621 5.74098 23427 ft 447 kts 133°
2026-05-04 18:21 52.00602 5.77909 23944 ft 449 kts 132°
2026-05-04 18:21 51.98592 5.81761 24468 ft 451 kts 132°
2026-05-04 18:22 51.96561 5.85665 24935 ft 454 kts 132°
2026-05-04 18:22 51.94533 5.89559 25393 ft 456 kts 132°
2026-05-04 18:22 51.92505 5.93449 25982 ft 454 kts 133°
2026-05-04 18:22 51.90482 5.97321 26593 ft 452 kts 133°
2026-05-04 18:23 51.88467 6.01173 26907 ft 450 kts 133°
2026-05-04 18:23 51.86450 6.05014 26943 ft 450 kts 133°
2026-05-04 18:23 51.84436 6.08839 26940 ft 449 kts 133°
2026-05-04 18:23 51.82404 6.12697 26937 ft 450 kts 133°
2026-05-04 18:24 51.80389 6.16519 26938 ft 449 kts 133°
2026-05-04 18:24 51.78373 6.20336 26937 ft 450 kts 134°
2026-05-04 18:24 51.76352 6.24156 26941 ft 449 kts 133°
2026-05-04 18:24 51.74334 6.27966 26939 ft 450 kts 134°
2026-05-04 18:25 51.72313 6.31776 26941 ft 450 kts 134°
2026-05-04 18:25 51.70292 6.35581 26944 ft 450 kts 134°
2026-05-04 18:25 51.68252 6.39414 26941 ft 449 kts 134°
2026-05-04 18:25 51.66230 6.43210 26943 ft 449 kts 134°
2026-05-04 18:26 51.64206 6.47000 26942 ft 449 kts 134°
2026-05-04 18:26 51.62179 6.50794 26943 ft 450 kts 134°
2026-05-04 18:26 51.60153 6.54580 26943 ft 449 kts 134°
2026-05-04 18:26 51.58121 6.58369 26944 ft 450 kts 134°
2026-05-04 18:27 51.56090 6.62152 26941 ft 450 kts 134°
2026-05-04 18:27 51.54049 6.65948 26944 ft 450 kts 135°
2026-05-04 18:27 51.52008 6.69739 26944 ft 450 kts 135°
2026-05-04 18:27 51.49973 6.73516 26945 ft 450 kts 135°
2026-05-04 18:28 51.47938 6.77286 26945 ft 450 kts 135°
2026-05-04 18:28 51.45899 6.81054 26942 ft 450 kts 135°
2026-05-04 18:28 51.43861 6.84814 26951 ft 450 kts 135°
2026-05-04 18:28 51.41823 6.88573 26953 ft 450 kts 135°
2026-05-04 18:29 51.39765 6.92363 26954 ft 450 kts 135°
2026-05-04 18:29 51.37722 6.96119 26951 ft 450 kts 135°
2026-05-04 18:29 51.35678 6.99871 26951 ft 450 kts 135°
2026-05-04 18:29 51.33631 7.03621 26953 ft 450 kts 135°
2026-05-04 18:30 51.29527 7.11125 26952 ft 451 kts 135°
2026-05-04 18:30 51.27473 7.14872 26952 ft 451 kts 135°
2026-05-04 18:30 51.25404 7.18643 26953 ft 451 kts 135°
2026-05-04 18:31 51.23350 7.22380 26957 ft 451 kts 135°
2026-05-04 18:31 51.21293 7.26116 26955 ft 451 kts 135°
2026-05-04 18:31 51.19236 7.29848 26954 ft 450 kts 135°
2026-05-04 18:31 51.17182 7.33571 26958 ft 450 kts 135°
2026-05-04 18:32 51.15123 7.37295 26958 ft 451 kts 135°
2026-05-04 18:32 51.13057 7.41023 26956 ft 451 kts 135°
2026-05-04 18:32 51.10975 7.44776 26958 ft 452 kts 135°
2026-05-04 18:32 51.08907 7.48498 26962 ft 452 kts 135°
2026-05-04 18:33 51.06837 7.52220 26958 ft 452 kts 135°
2026-05-04 18:33 51.04767 7.55940 26963 ft 452 kts 135°
2026-05-04 18:33 51.02690 7.59663 26960 ft 453 kts 135°
2026-05-04 18:33 51.00613 7.63380 26960 ft 453 kts 135°
2026-05-04 18:34 50.98540 7.67086 26960 ft 453 kts 135°
2026-05-04 18:34 50.96443 7.70828 26961 ft 453 kts 136°
2026-05-04 18:34 50.94358 7.74543 26963 ft 453 kts 135°
2026-05-04 18:34 50.92278 7.78246 26965 ft 452 kts 135°
2026-05-04 18:35 50.90192 7.81953 26964 ft 452 kts 136°
2026-05-04 18:35 50.88109 7.85648 26968 ft 453 kts 135°
2026-05-04 18:35 50.86023 7.89347 26969 ft 452 kts 136°
2026-05-04 18:35 50.83937 7.93040 26968 ft 452 kts 136°
2026-05-04 18:36 50.81838 7.96746 26969 ft 452 kts 135°
2026-05-04 18:36 50.79754 8.00424 26967 ft 452 kts 135°
2026-05-04 18:36 50.77665 8.04105 26971 ft 452 kts 135°
2026-05-04 18:36 50.75578 8.07775 26969 ft 452 kts 135°
2026-05-04 18:37 50.73493 8.11441 26967 ft 452 kts 135°
2026-05-04 18:37 50.71404 8.15106 26969 ft 452 kts 136°
2026-05-04 18:37 50.69312 8.18770 26963 ft 453 kts 136°
2026-05-04 18:37 50.67197 8.22467 26963 ft 453 kts 136°
2026-05-04 18:38 50.65098 8.26131 26964 ft 454 kts 136°
2026-05-04 18:38 50.62994 8.29800 26966 ft 453 kts 136°
2026-05-04 18:38 50.60894 8.33459 26962 ft 453 kts 136°
2026-05-04 18:38 50.58787 8.37122 26957 ft 453 kts 136°
2026-05-04 18:39 50.56683 8.40774 26955 ft 454 kts 135°
2026-05-04 18:39 50.54571 8.44437 26952 ft 454 kts 136°
2026-05-04 18:39 50.52453 8.48108 26945 ft 453 kts 136°
2026-05-04 18:39 50.50346 8.51749 26943 ft 453 kts 135°
2026-05-04 18:40 50.48235 8.55391 26938 ft 453 kts 136°
2026-05-04 18:40 50.46021 8.58845 26928 ft 449 kts 143°
2026-05-04 18:40 50.43489 8.61612 26936 ft 444 kts 153°
2026-05-04 18:40 50.40722 8.63621 26937 ft 439 kts 163°
2026-05-04 18:41 50.37847 8.65052 26938 ft 437 kts 167°
2026-05-04 18:41 50.34917 8.66413 26937 ft 437 kts 167°
2026-05-04 18:41 50.32005 8.67753 26934 ft 437 kts 167°
2026-05-04 18:41 50.29106 8.69093 26934 ft 437 kts 167°
2026-05-04 18:42 50.26211 8.70438 26935 ft 437 kts 167°
2026-05-04 18:42 50.23310 8.71789 26935 ft 437 kts 167°
2026-05-04 18:42 50.20415 8.73139 26937 ft 437 kts 167°
2026-05-04 18:42 50.17516 8.74491 26799 ft 439 kts 167°
2026-05-04 18:43 50.14584 8.75854 26252 ft 439 kts 167°
2026-05-04 18:43 50.11674 8.77207 25713 ft 440 kts 166°
2026-05-04 18:43 50.08734 8.78470 25180 ft 440 kts 171°
2026-05-04 18:43 50.05730 8.79028 24939 ft 436 kts 180°
2026-05-04 18:44 50.02724 8.78828 24937 ft 435 kts 188°
2026-05-04 18:44 50.00733 8.78295 24937 ft 434 kts 193°
2026-05-04 18:44 49.96828 8.76975 24937 ft 434 kts 194°
2026-05-04 18:44 49.93873 8.75944 24934 ft 434 kts 194°
2026-05-04 18:45 49.90945 8.74921 24934 ft 434 kts 194°
2026-05-04 18:45 49.88021 8.73905 24936 ft 433 kts 194°
2026-05-04 18:45 49.85090 8.72891 24935 ft 433 kts 194°
2026-05-04 18:45 49.82154 8.71881 24936 ft 433 kts 194°
2026-05-04 18:46 49.79229 8.70875 24937 ft 433 kts 194°
2026-05-04 18:46 49.76303 8.69891 24938 ft 433 kts 193°
2026-05-04 18:46 49.73324 8.69093 24937 ft 434 kts 190°
2026-05-04 18:46 49.70341 8.68541 24933 ft 435 kts 187°
2026-05-04 18:47 49.67345 8.68148 24939 ft 435 kts 187°
2026-05-04 18:47 49.64340 8.67741 24948 ft 435 kts 187°
2026-05-04 18:47 49.61346 8.67334 24950 ft 434 kts 187°
2026-05-04 18:47 49.58352 8.66928 24952 ft 434 kts 187°
2026-05-04 18:48 49.55352 8.66525 24961 ft 434 kts 187°
2026-05-04 18:48 49.52338 8.66121 24961 ft 434 kts 187°
2026-05-04 18:48 49.49341 8.65721 24963 ft 434 kts 187°
2026-05-04 18:48 49.46346 8.65321 24963 ft 434 kts 186°
2026-05-04 18:49 49.43352 8.64922 24962 ft 434 kts 187°
2026-05-04 18:49 49.40352 8.64523 24961 ft 435 kts 187°
2026-05-04 18:49 49.37358 8.64125 24955 ft 434 kts 187°
2026-05-04 18:49 49.34364 8.63729 24954 ft 434 kts 186°
2026-05-04 18:50 49.31347 8.63314 24955 ft 434 kts 187°
2026-05-04 18:50 49.28357 8.62855 24948 ft 434 kts 187°
2026-05-04 18:50 49.25369 8.62382 24949 ft 434 kts 187°
2026-05-04 18:50 49.22375 8.61909 24947 ft 434 kts 187°
2026-05-04 18:51 49.19388 8.61443 24946 ft 434 kts 187°
2026-05-04 18:51 49.16400 8.60980 24943 ft 434 kts 187°
2026-05-04 18:51 49.13408 8.60522 24942 ft 434 kts 187°
2026-05-04 18:51 49.10398 8.60069 24944 ft 434 kts 187°
2026-05-04 18:52 49.07403 8.59622 24943 ft 434 kts 187°
2026-05-04 18:52 49.04415 8.59175 24943 ft 434 kts 187°
2026-05-04 18:52 49.01417 8.58839 24943 ft 435 kts 184°
2026-05-04 18:52 48.98402 8.58742 24943 ft 435 kts 181°
2026-05-04 18:53 48.95390 8.58893 24945 ft 436 kts 179°
2026-05-04 18:53 48.92380 8.59244 24948 ft 437 kts 177°
2026-05-04 18:53 48.89343 8.59598 24954 ft 437 kts 178°
2026-05-04 18:53 48.86329 8.59958 24953 ft 437 kts 176°
2026-05-04 18:54 48.83323 8.60591 24958 ft 438 kts 172°
2026-05-04 18:54 48.80352 8.61598 24962 ft 440 kts 168°
2026-05-04 18:54 48.77444 8.62973 24967 ft 441 kts 163°
2026-05-04 18:54 48.74624 8.64757 24948 ft 445 kts 153°
2026-05-04 18:55 48.72224 8.67717 24962 ft 452 kts 136°
2026-05-04 18:55 48.69555 8.76292 23766 ft 469 kts 101°
2026-05-04 18:55 48.69634 8.81219 22523 ft 482 kts 82°
2026-05-04 18:56 48.70552 8.86036 21862 ft 476 kts 74°
2026-05-04 18:56 48.71518 8.90748 21273 ft 468 kts 75°
2026-05-04 18:56 48.72445 8.95404 20607 ft 463 kts 75°
2026-05-04 18:56 48.73345 9.00018 19907 ft 458 kts 75°
2026-05-04 18:57 48.74233 9.04627 19198 ft 453 kts 75°
2026-05-04 18:57 48.75097 9.09154 18504 ft 449 kts 75°
2026-05-04 18:57 48.75952 9.13646 17826 ft 444 kts 75°
2026-05-04 18:57 48.76795 9.18088 17127 ft 440 kts 75°
2026-05-04 18:58 48.77628 9.22486 16467 ft 435 kts 76°
2026-05-04 18:58 48.78449 9.26838 15834 ft 430 kts 75°
2026-05-04 18:58 48.79261 9.31150 15192 ft 425 kts 76°
2026-05-04 18:58 48.80064 9.35437 14544 ft 421 kts 75°
2026-05-04 18:59 48.80856 9.39661 13914 ft 417 kts 75°
2026-05-04 18:59 48.81636 9.43832 13275 ft 412 kts 75°
2026-05-04 18:59 48.82406 9.47964 12635 ft 408 kts 75°
2026-05-04 18:59 48.83169 9.52062 12048 ft 403 kts 75°
2026-05-04 19:00 48.83915 9.56087 11640 ft 394 kts 75°
2026-05-04 19:00 48.84644 9.60023 11189 ft 386 kts 75°
2026-05-04 19:00 48.85361 9.63907 10776 ft 378 kts 75°
2026-05-04 19:00 48.86053 9.67670 10480 ft 367 kts 76°
2026-05-04 19:01 48.86721 9.71315 10294 ft 354 kts 76°
2026-05-04 19:01 48.87364 9.74829 10124 ft 341 kts 76°
2026-05-04 19:01 48.87985 9.78213 9966 ft 328 kts 76°
2026-05-04 19:01 48.88485 9.81510 9716 ft 318 kts 87°
2026-05-04 19:02 48.88119 9.84704 9410 ft 305 kts 118°
2026-05-04 19:02 48.86786 9.87085 9067 ft 293 kts 149°
2026-05-04 19:02 48.84922 9.88073 8729 ft 284 kts 176°
2026-05-04 19:02 48.83001 9.87732 8300 ft 281 kts 200°
2026-05-04 19:03 48.81377 9.86167 7840 ft 281 kts 226°
2026-05-04 19:03 48.80372 9.83680 7426 ft 281 kts 250°
2026-05-04 19:03 48.79867 9.80851 7073 ft 278 kts 255°
2026-05-04 19:03 48.79382 9.78050 6965 ft 273 kts 254°
2026-05-04 19:04 48.78888 9.75279 6961 ft 274 kts 254°
2026-05-04 19:04 48.78400 9.72581 6951 ft 259 kts 253°
2026-05-04 19:04 48.77931 9.70018 6786 ft 251 kts 253°
2026-05-04 19:04 48.77468 9.67511 6521 ft 247 kts 253°
2026-05-04 19:05 48.77011 9.65046 6251 ft 243 kts 253°
2026-05-04 19:05 48.76560 9.62618 5982 ft 239 kts 253°
2026-05-04 19:05 48.76116 9.60234 5717 ft 235 kts 254°
2026-05-04 19:05 48.75677 9.57875 5456 ft 231 kts 254°
2026-05-04 19:06 48.75248 9.55568 5198 ft 227 kts 255°
2026-05-04 19:06 48.74825 9.53303 4947 ft 223 kts 255°
2026-05-04 19:06 48.74411 9.51077 4698 ft 219 kts 255°
2026-05-04 19:06 48.74007 9.48913 4546 ft 208 kts 255°
2026-05-04 19:07 48.73626 9.46862 4349 ft 197 kts 256°
2026-05-04 19:07 48.73272 9.44907 4064 ft 190 kts 257°
2026-05-04 19:07 48.72929 9.43063 3976 ft 171 kts 257°
2026-05-04 19:07 48.72622 9.41443 3939 ft 153 kts 257°
2026-05-04 19:08 48.72335 9.39912 3812 ft 154 kts 257°
2026-05-04 19:08 48.72037 9.38324 3225 ft 165 kts 257°
2026-05-04 19:08 48.71723 9.36636 2695 ft 170 kts 258°
2026-05-04 19:08 48.71417 9.34990 2450 ft 157 kts 257°
2026-05-04 19:09 48.71126 9.33460 2388 ft 148 kts 257°
2026-05-04 19:09 48.70840 9.31957 2199 ft 147 kts 257°
2026-05-04 19:09 48.70566 9.30478 2008 ft 147 kts 258°
2026-05-04 19:09 48.70278 9.29009 1815 ft 146 kts 257°
2026-05-04 19:10 48.69979 9.27550 1624 ft 146 kts 257°
2026-05-04 19:10 48.69722 9.26079 1435 ft 145 kts 258°
2026-05-04 19:10 48.69441 9.24627 1247 ft 144 kts 258°
2026-05-04 19:10 48.69179 9.23220 1204 ft 130 kts 258°
2026-05-04 19:11 48.68973 9.22107 1231 ft 85 kts 254°
2026-05-04 19:11 48.68869 9.21566 1243 ft 33 kts 253°
2026-05-04 19:11 48.68818 9.21256 1250 ft 28 kts 264°
2026-05-04 19:11 48.68837 9.20988 1257 ft 24 kts 283°
2026-05-04 19:12 48.68870 9.20788 1263 ft 14 kts 284°
2026-05-04 19:12 48.68875 9.20757 1264 ft 3 kts 282°
2026-05-04 19:12 48.68878 9.20731 1265 ft 1 kts 277°
2026-05-04 19:13 48.68878 9.20727 1265 ft 0 kts 277°
2026-05-04 19:13 48.68878 9.20708 1265 ft 5 kts 265°
2026-05-04 19:13 48.68865 9.20620 1267 ft 9 kts 254°
2026-05-04 19:13 48.68850 9.20540 1270 ft 7 kts 253°
2026-05-04 19:14 48.68839 9.20488 1271 ft 4 kts 253°
2026-05-04 19:14 48.68832 9.20446 1273 ft 7 kts 254°
2026-05-04 19:14 48.68819 9.20376 1275 ft 7 kts 254°
2026-05-04 19:14 48.68804 9.20299 1278 ft 8 kts 254°
2026-05-04 19:15 48.68789 9.20216 1281 ft 8 kts 254°
2026-05-04 19:15 48.68773 9.20128 1284 ft 11 kts 253°
2026-05-04 19:15 48.68765 9.20015 1287 ft 10 kts 290°
2026-05-04 19:15 48.68801 9.19939 1290 ft 8 kts 313°
2026-05-04 19:16 48.68840 9.19898 1291 ft 7 kts 337°
2026-05-04 19:16 48.68880 9.19860 1293 ft 8 kts 300°
2026-05-04 19:16 48.68879 9.19766 1296 ft 9 kts 256°
2026-05-04 19:16 48.68865 9.19686 1298 ft 7 kts 254°
2026-05-04 19:17 48.68858 9.19635 1300 ft 3 kts 278°
2026-05-04 19:17 48.68872 9.19611 1301 ft 7 kts 327°
2026-05-04 19:17 48.68917 9.19584 1302 ft 6 kts 342°
2026-05-04 19:17 48.68929 9.19579 1303 ft 0 kts 343°